Location: Carrizalito
(10.3833°N, 67.0217°W)
Time: 18:36:09
(UTC+00:00)

Cosmos 2266 Rocket - Pass Details

Date: 08 December 2021
Orbit: 935 x 1007 km, 82.9° (Epoch: 16 January)

Event Time Altitude Azimuth Distance (km) Brightness Sun altitude
Rises 22:37:02 0° 7° (N) 3,726 6.8 -7.8°
Reaches altitude 10° 22:39:41 10° 13° (NNE) 2,776 6.1 -8.4°
Maximum altitude 22:45:47 47° 86° (E) 1,301 4.3 -9.8°
Drops below altitude 10° 22:51:50 10° 158° (SSE) 2,756 6.4 -11.2°
Sets 22:54:26 0° 164° (SSE) 3,696 7.1 -11.8°
